Regional Weather Roundup
Issued by NWS

Home | Current Version | Previous Version | Text Only | Print | Product List | Glossary Off
Versions: 1 2 3 4 5 6 7 8 9 10 11 12 13 14 15 16 17 18 19 20 21 22 23 24 25 26 27 28 29 30 31 32 33 34 35 36 37 38 39 40 41 42 43 44 45 46 47 48 49 50

000
ASUS43 KFSD 240310
RWRSD

WEATHER ROUNDUP FOR SOUTH DAKOTA
NATIONAL WEATHER SERVICE SIOUX FALLS SD
900 PM CST THU NOV 23 2017

NOTE: "FAIR" INDICATES FEW OR NO CLOUDS BELOW 12,000 FEET WITH NO
SIGNIFICANT WEATHER AND/OR OBSTRUCTIONS TO VISIBILITY.


SDZ001>005-009-010-012>017-240400-
NORTHWEST AND NORTH CENTRAL SOUTH DAKOTA

CITY           SKY/WX    TMP DP  RH WIND       PRES   REMARKS
FAITH            N/A     55  36  48 SW14      29.59F
MOBRIDGE       CLEAR     60  39  45 SW9       29.51F
$$

SDZ012>016-024>037-041>051-057-063-072>074-240400-
SOUTHWEST AND SOUTH CENTRAL SOUTH DAKOTA

CITY           SKY/WX    TMP DP  RH WIND       PRES   REMARKS
RAPID CTY ARPT CLEAR     46  31  55 CALM      29.66F
PIERRE         CLEAR     57  39  51 SW10      29.57F
CUSTER         CLOUDY    48  31  51 SW5       29.81F
ELLSWORTH AFB  CLEAR     53  32  45 W10       29.65F
PHILIP         CLEAR     47  37  68 W8        29.62F
PINE RIDGE     CLOUDY    54  36  50 NW6       29.74F
SPEARFISH      FAIR      63  34  34 SW22G31   29.67F
WINNER         FAIR      57  39  51 SW9       29.65F
$$

SDZ004>011-016>023-039-040-240400-
NORTHEAST SOUTH DAKOTA

CITY           SKY/WX    TMP DP  RH WIND       PRES   REMARKS
ABERDEEN       CLEAR     40  36  86 S8        29.53F
WATERTOWN      CLEAR     41  36  82 S9        29.58F
BROOKINGS      CLEAR     47  37  68 S12       29.62F
SISSETON         N/A     56  41  57 SW20      29.49F
$$

SDZ017-020-022-023-036>040-048>070-240400-
SOUTHEAST SOUTH DAKOTA

CITY           SKY/WX    TMP DP  RH WIND       PRES   REMARKS
SIOUX FALLS    CLOUDY    56  42  59 SW10      29.65F
HURON          CLEAR     49  40  71 S9        29.57F
CHAMBERLAIN    CLEAR     56  41  58 SW7       29.63F
MITCHELL       PTCLDY    56  41  57 SW10      29.62F
YANKTON        CLOUDY    61  42  49 S8        29.67F
$$

ABBREVIATIONS USED IN REMARKS
   TC - TEMPERATURE IN CELSIUS
  WCI - WIND CHILL INDEX
   HX - HEAT INDEX
  VSB - VISIBILITY





USA.gov is the U.S. government's official web portal to all federal, state and local government web resources and services.